This is the latest recevied weather packets stored in our database for station/object KB3HHA-13. If no packets are shown the sender has not sent any weather packets the latest 10 day(s).
| Time | Temp. | Humidity | Pressure | Rain* | Wind** | Luminosity | Snow |
|---|---|---|---|---|---|---|---|
| 1778178420 | 20° C | 41% | 1009.1 hPa | 0 mm | - | - | - |
| 1778178121 | 20° C | 43% | 1009.3 hPa | 0 mm | - | - | - |
| 1778177823 | 19.44° C | 41% | 1009.3 hPa | 0 mm | - | - | - |
| 1778177521 | 19.44° C | 47% | 1009.3 hPa | 0 mm | - | - | - |
| 1778177220 | 19.44° C | 43% | 1009.3 hPa | 0 mm | - | - | - |
| 1778176922 | 19.44° C | 47% | 1009.4 hPa | 0 mm | - | - | - |
| 1778176621 | 19.44° C | 46% | 1009.6 hPa | 0 mm | - | - | - |
| 1778176322 | 19.44° C | 45% | 1009.6 hPa | 0 mm | - | - | - |
| 1778176020 | 18.89° C | 45% | 1009.8 hPa | 0 mm | - | - | - |
| 1778175721 | 18.89° C | 46% | 1009.8 hPa | 0 mm | - | - | - |
| 1778175422 | 18.89° C | 44% | 1009.9 hPa | 0 mm | - | - | - |
| 1778175120 | 18.89° C | 43% | 1010.1 hPa | 0 mm | - | - | - |
| 1778174822 | 18.89° C | 48% | 1010.2 hPa | 0 mm | - | - | - |
| 1778174521 | 18.89° C | 47% | 1010.3 hPa | 0 mm | - | - | - |
| 1778174222 | 18.89° C | 46% | 1010.3 hPa | 0 mm | - | - | - |
| 1778173921 | 18.33° C | 45% | 1010.4 hPa | 0 mm | - | - | - |
| 1778173624 | 18.33° C | 48% | 1010.4 hPa | 0 mm | - | - | - |
| 1778173321 | 18.33° C | 46% | 1010.4 hPa | 0 mm | - | - | - |
| 1778173020 | 18.33° C | 45% | 1010.6 hPa | 0 mm | - | - | - |
| 1778172722 | 18.33° C | 47% | 1010.5 hPa | 0 mm | - | - | - |
| 1778172420 | 18.33° C | 49% | 1010.7 hPa | 0 mm | - | - | - |
| 1778172121 | 17.78° C | 49% | 1010.9 hPa | 0 mm | - | - | - |
| 1778171820 | 17.22° C | 45% | 1011.1 hPa | 0 mm | - | - | - |
| 1778171521 | 17.22° C | 45% | 1010.9 hPa | 0 mm | - | - | - |
| 1778171220 | 17.22° C | 47% | 1011.1 hPa | 0 mm | - | - | - |
* Rain latest hour (hover to see other rain measurements)
** Current wind speed in m/s (hover to see current wind gust speed)